Time,TemperatureF,DewpointF,PressureIn,WindDirection,WindDirectionDegrees,WindSpeedMPH,WindSpeedGustMPH,Humidity,HourlyPrecipIn,Conditions,Clouds,dailyrainin,SoftwareType,DateUTC
2013-01-10 00:00:00,51.2,51.1,30.36,WSW,250,0.0,0.0,100,0.00,,CLR,0.00,VWS V14.00,2013-01-10 05:00:00,
2013-01-10 00:01:00,51.3,51.2,30.36,WSW,250,0.0,0.0,100,0.00,,CLR,0.00,VWS V14.00,2013-01-10 05:01:00,
2013-01-10 00:06:00,52.0,51.9,30.36,WSW,250,0.0,0.0,100,0.00,,CLR,0.00,VWS V14.00,2013-01-10 05:06:00,
2013-01-10 00:11:00,51.4,51.2,30.36,WSW,250,0.0,0.0,99,0.00,,CLR,0.00,VWS V14.00,2013-01-10 05:11:00,
2013-01-10 00:16:00,51.4,51.3,30.36,WSW,250,0.0,0.0,100,0.00,,CLR,0.00,VWS V14.00,2013-01-10 05:16:00,
2013-01-10 00:21:00,51.9,51.7,30.36,WSW,250,0.0,0.0,99,0.00,,CLR,0.00,VWS V14.00,2013-01-10 05:21:00,
2013-01-10 00:26:00,51.4,51.2,30.37,WSW,250,4.3,4.3,99,0.00,,CLR,0.00,VWS V14.00,2013-01-10 05:26:00,
2013-01-10 00:31:00,51.4,51.1,30.37,West,278,0.0,4.3,99,0.00,,CLR,0.00,VWS V14.00,2013-01-10 05:31:00,
2013-01-10 00:36:00,51.8,51.4,30.37,West,278,0.0,0.0,98,0.00,,CLR,0.00,VWS V14.00,2013-01-10 05:36:00,
2013-01-10 00:41:00,51.6,51.1,30.37,West,278,0.0,0.0,98,0.00,,CLR,0.00,VWS V14.00,2013-01-10 05:41:00,
2013-01-10 00:46:00,51.8,51.2,30.37,NNW,345,0.0,5.5,98,0.00,,CLR,0.00,VWS V14.00,2013-01-10 05:46:00,
2013-01-10 00:51:00,52.0,51.3,30.37,NNW,345,0.0,4.2,97,0.00,,CLR,0.00,VWS V14.00,2013-01-10 05:51:00,
2013-01-10 00:56:00,52.2,51.4,30.37,North,352,0.0,4.7,97,0.00,,CLR,0.00,VWS V14.00,2013-01-10 05:56:00,
2013-01-10 01:01:00,51.7,50.9,30.37,North,352,0.0,4.7,97,0.00,,CLR,0.00,VWS V14.00,2013-01-10 06:01:00,
2013-01-10 01:06:00,51.9,51.1,30.37,North,0,0.0,5.3,97,0.00,,CLR,0.00,VWS V14.00,2013-01-10 06:06:00,
2013-01-10 01:11:00,52.3,51.5,30.37,NNW,336,0.0,5.3,97,0.00,,CLR,0.00,VWS V14.00,2013-01-10 06:11:00,
2013-01-10 01:16:00,51.8,51.1,30.37,NNW,336,0.0,5.3,97,0.00,,CLR,0.00,VWS V14.00,2013-01-10 06:16:00,
2013-01-10 01:21:00,51.6,50.9,30.37,NNW,336,0.0,0.0,97,0.00,,CLR,0.00,VWS V14.00,2013-01-10 06:21:00,
2013-01-10 01:26:00,51.4,50.8,30.38,NNW,336,0.0,0.0,98,0.00,,CLR,0.00,VWS V14.00,2013-01-10 06:26:00,
2013-01-10 01:31:00,51.4,50.9,30.38,NNW,336,0.0,0.0,98,0.00,,CLR,0.00,VWS V14.00,2013-01-10 06:31:00,
2013-01-10 01:36:00,51.3,51.0,30.38,NNW,336,0.0,0.0,99,0.00,,CLR,0.00,VWS V14.00,2013-01-10 06:36:00,
2013-01-10 01:41:00,51.2,50.9,30.37,NNW,336,0.0,0.0,99,0.00,,CLR,0.00,VWS V14.00,2013-01-10 06:41:00,
2013-01-10 01:46:00,51.2,51.0,30.37,NNW,336,0.0,0.0,99,0.00,,CLR,0.00,VWS V14.00,2013-01-10 06:46:00,
2013-01-10 01:51:00,51.2,51.0,30.38,NNW,336,0.0,0.0,99,0.00,,CLR,0.00,VWS V14.00,2013-01-10 06:51:00,
2013-01-10 01:56:00,51.5,51.4,30.38,NNW,336,0.0,0.0,100,0.00,,CLR,0.00,VWS V14.00,2013-01-10 06:56:00,
2013-01-10 02:01:00,51.3,51.3,30.37,NNW,336,0.0,0.0,100,0.00,,CLR,0.00,VWS V14.00,2013-01-10 07:01:00,
2013-01-10 02:06:00,51.0,51.0,30.37,NNW,336,0.0,0.0,100,0.00,,CLR,0.00,VWS V14.00,2013-01-10 07:06:00,
2013-01-10 02:11:00,51.0,51.0,30.37,NNW,336,0.0,0.0,100,0.00,,CLR,0.00,VWS V14.00,2013-01-10 07:11:00,
2013-01-10 02:16:00,51.0,51.0,30.37,NNW,336,0.0,0.0,100,0.00,,CLR,0.00,VWS V14.00,2013-01-10 07:16:00,
2013-01-10 02:21:00,51.2,51.2,30.37,NNW,336,0.0,0.0,100,0.00,,CLR,0.00,VWS V14.00,2013-01-10 07:21:00,
2013-01-10 02:26:00,51.2,51.2,30.37,NNW,336,0.0,0.0,100,0.00,,CLR,0.00,VWS V14.00,2013-01-10 07:26:00,
2013-01-10 02:31:00,50.9,50.9,30.37,NNW,336,0.0,0.0,100,0.00,,CLR,0.00,VWS V14.00,2013-01-10 07:31:00,
2013-01-10 02:36:00,50.8,50.8,30.37,NNW,336,0.0,0.0,100,0.00,,CLR,0.00,VWS V14.00,2013-01-10 07:36:00,
2013-01-10 02:41:00,50.8,50.8,30.37,NNW,336,0.0,0.0,100,0.00,,CLR,0.00,VWS V14.00,2013-01-10 07:41:00,
2013-01-10 02:46:00,51.1,51.1,30.37,NNW,336,0.0,0.0,100,0.00,,CLR,0.00,VWS V14.00,2013-01-10 07:46:00,
2013-01-10 02:51:00,51.0,51.0,30.37,NNW,336,0.0,0.0,100,0.00,,CLR,0.00,VWS V14.00,2013-01-10 07:51:00,
2013-01-10 02:56:00,50.7,50.7,30.37,NNW,336,0.0,0.0,100,0.00,,CLR,0.00,VWS V14.00,2013-01-10 07:56:00,
2013-01-10 03:01:00,50.6,50.6,30.37,NNW,336,0.0,0.0,100,0.00,,CLR,0.00,VWS V14.00,2013-01-10 08:01:00,
2013-01-10 03:06:00,50.4,50.4,30.38,NNW,336,0.0,0.0,100,0.00,,CLR,0.00,VWS V14.00,2013-01-10 08:06:00,
2013-01-10 03:11:00,50.7,50.7,30.38,NNW,336,0.0,0.0,100,0.00,,CLR,0.00,VWS V14.00,2013-01-10 08:11:00,
2013-01-10 03:16:00,50.7,50.7,30.37,NNW,336,0.0,0.0,100,0.00,,CLR,0.00,VWS V14.00,2013-01-10 08:16:00,
2013-01-10 03:21:00,50.4,50.4,30.37,NNW,336,0.0,0.0,100,0.00,,CLR,0.00,VWS V14.00,2013-01-10 08:21:00,
2013-01-10 03:26:00,50.3,50.3,30.38,NNW,336,0.0,0.0,100,0.00,,CLR,0.00,VWS V14.00,2013-01-10 08:26:00,
2013-01-10 03:31:00,50.3,50.3,30.38,NNW,336,0.0,0.0,100,0.00,,CLR,0.00,VWS V14.00,2013-01-10 08:31:00,
2013-01-10 03:36:00,50.6,50.6,30.38,NNW,336,0.0,0.0,100,0.00,,CLR,0.00,VWS V14.00,2013-01-10 08:36:00,
2013-01-10 03:41:00,50.8,50.8,30.38,NNW,336,0.0,0.0,100,0.00,,CLR,0.00,VWS V14.00,2013-01-10 08:41:00,
2013-01-10 03:46:00,50.5,50.5,30.38,NNW,336,0.0,0.0,100,0.00,,CLR,0.00,VWS V14.00,2013-01-10 08:46:00,
2013-01-10 07:35:00,47.7,47.7,30.42,NNW,336,0.0,0.0,100,0.00,,CLR,0.00,VWS V14.00,2013-01-10 12:35:00,
2013-01-10 07:40:00,47.5,47.5,30.42,NNW,336,0.0,0.0,100,0.00,,CLR,0.00,VWS V14.00,2013-01-10 12:40:00,
2013-01-10 07:45:00,47.4,47.4,30.42,NNW,336,0.0,0.0,100,0.00,,CLR,0.00,VWS V14.00,2013-01-10 12:45:00,
2013-01-10 07:50:00,47.4,47.3,30.43,NNW,336,0.0,0.0,100,0.00,,CLR,0.00,VWS V14.00,2013-01-10 12:50:00,
2013-01-10 07:55:00,47.4,47.2,30.43,NNW,336,0.0,0.0,99,0.00,,CLR,0.00,VWS V14.00,2013-01-10 12:55:00,
2013-01-10 08:00:00,47.5,47.2,30.43,NNW,336,0.0,0.0,99,0.00,,CLR,0.00,VWS V14.00,2013-01-10 13:00:00,
2013-01-10 08:05:00,47.8,47.2,30.43,NNW,336,0.0,0.0,98,0.00,,CLR,0.00,VWS V14.00,2013-01-10 13:05:00,
2013-01-10 08:10:00,48.2,47.2,30.44,NNW,336,0.0,0.0,96,0.00,,CLR,0.00,VWS V14.00,2013-01-10 13:10:00,
2013-01-10 08:15:00,48.5,47.2,30.44,NNW,336,0.0,0.0,95,0.00,,CLR,0.00,VWS V14.00,2013-01-10 13:15:00,
2013-01-10 08:20:00,48.7,46.9,30.45,NNW,336,0.0,0.0,94,0.00,,CLR,0.00,VWS V14.00,2013-01-10 13:20:00,
2013-01-10 08:25:00,48.9,46.8,30.45,NNW,336,0.0,0.0,92,0.00,,CLR,0.00,VWS V14.00,2013-01-10 13:25:00,
2013-01-10 08:30:00,49.1,46.6,30.45,NNW,336,0.0,0.0,91,0.00,,CLR,0.00,VWS V14.00,2013-01-10 13:30:00,
2013-01-10 08:35:00,49.2,46.3,30.45,NNW,336,0.0,0.0,90,0.00,,CLR,0.00,VWS V14.00,2013-01-10 13:35:00,
2013-01-10 08:40:00,49.3,45.6,30.45,NNW,336,0.0,0.0,87,0.00,,CLR,0.00,VWS V14.00,2013-01-10 13:40:00,
2013-01-10 08:45:00,49.3,44.9,30.45,NNE,13,0.0,4.5,85,0.00,,CLR,0.00,VWS V14.00,2013-01-10 13:45:00,
2013-01-10 08:50:00,49.3,44.7,30.45,NNE,13,0.0,0.0,84,0.00,,CLR,0.00,VWS V14.00,2013-01-10 13:50:00,
2013-01-10 08:55:00,49.2,44.1,30.45,NNE,13,0.0,0.0,83,0.00,,CLR,0.00,VWS V14.00,2013-01-10 13:55:00,
2013-01-10 09:00:00,49.2,43.6,30.46,NNE,13,0.0,0.0,81,0.00,,CLR,0.00,VWS V14.00,2013-01-10 14:00:00,
2013-01-10 09:05:00,49.3,43.3,30.46,NNE,13,0.0,0.0,80,0.00,,CLR,0.00,VWS V14.00,2013-01-10 14:05:00,
2013-01-10 09:10:00,49.4,43.2,30.46,NNE,13,0.0,0.0,79,0.00,,CLR,0.00,VWS V14.00,2013-01-10 14:10:00,
2013-01-10 09:15:00,47.6,40.9,30.46,NNE,13,0.0,0.0,77,0.00,,CLR,0.00,VWS V14.00,2013-01-10 14:15:00,
2013-01-10 09:20:00,47.6,39.9,30.46,NNE,13,0.0,0.0,74,0.00,,CLR,0.00,VWS V14.00,2013-01-10 14:20:00,
2013-01-10 09:25:00,48.9,40.0,30.46,NNE,13,0.0,5.2,71,0.00,,CLR,0.00,VWS V14.00,2013-01-10 14:25:00,
2013-01-10 09:30:00,48.7,39.2,30.46,NNE,13,0.0,5.2,69,0.00,,CLR,0.00,VWS V14.00,2013-01-10 14:30:00,
2013-01-10 09:35:00,49.7,39.5,30.46,East,96,3.3,5.4,68,0.00,,CLR,0.00,VWS V14.00,2013-01-10 14:35:00,
2013-01-10 09:40:00,50.9,40.8,30.46,ENE,62,0.0,5.4,68,0.00,,CLR,0.00,VWS V14.00,2013-01-10 14:40:00,
2013-01-10 09:45:00,51.0,40.1,30.46,NE,49,0.0,6.3,66,0.00,,CLR,0.00,VWS V14.00,2013-01-10 14:45:00,
2013-01-10 09:50:00,49.1,38.2,30.47,NE,34,0.0,4.7,66,0.00,,BKN120,0.00,VWS V14.00,2013-01-10 14:50:00,
2013-01-10 09:55:00,50.7,40.1,30.46,NE,34,0.0,4.7,67,0.00,,BKN120,0.00,VWS V14.00,2013-01-10 14:55:00,
2013-01-10 10:00:00,50.6,39.5,30.47,NNE,17,2.1,7.7,66,0.00,,BKN120,0.00,VWS V14.00,2013-01-10 15:00:00,
2013-01-10 10:05:00,51.2,39.5,30.47,NNE,15,0.0,6.9,64,0.00,,BKN120,0.00,VWS V14.00,2013-01-10 15:05:00,
2013-01-10 10:10:00,51.2,39.4,30.47,ENE,73,0.0,7.6,64,0.00,,BKN120,0.00,VWS V14.00,2013-01-10 15:10:00,
2013-01-10 10:15:00,51.2,39.5,30.47,NE,46,0.0,7.6,64,0.00,,BKN120,0.00,VWS V14.00,2013-01-10 15:15:00,
2013-01-10 10:20:00,50.6,39.1,30.47,East,87,4.4,4.4,64,0.00,,BKN120,0.00,VWS V14.00,2013-01-10 15:20:00,
2013-01-10 10:25:00,51.3,38.9,30.46,East,79,4.7,7.2,62,0.00,,BKN120,0.00,VWS V14.00,2013-01-10 15:25:00,
2013-01-10 10:30:00,51.6,39.3,30.46,North,11,0.0,8.7,63,0.00,,BKN120,0.00,VWS V14.00,2013-01-10 15:30:00,
2013-01-10 10:35:00,51.6,38.9,30.46,NNE,17,0.0,4.7,62,0.00,,BKN120,0.00,VWS V14.00,2013-01-10 15:35:00,
2013-01-10 10:40:00,51.4,38.2,30.46,East,100,0.0,6.8,60,0.00,,BKN120,0.00,VWS V14.00,2013-01-10 15:40:00,
2013-01-10 10:45:00,51.4,38.2,30.46,East,98,0.0,6.8,60,0.00,,BKN120,0.00,VWS V14.00,2013-01-10 15:45:00,
2013-01-10 10:50:00,52.0,38.9,30.46,North,359,0.0,4.7,61,0.00,,BKN110,0.00,VWS V14.00,2013-01-10 15:50:00,
2013-01-10 10:55:00,51.6,38.1,30.46,NNE,13,0.0,4.9,60,0.00,,BKN110,0.00,VWS V14.00,2013-01-10 15:55:00,
2013-01-10 11:00:00,51.1,37.3,30.46,NNE,25,3.1,4.9,59,0.00,,BKN110,0.00,VWS V14.00,2013-01-10 16:00:00,
2013-01-10 11:05:00,51.7,37.7,30.46,NE,42,0.0,4.8,59,0.00,,BKN110,0.00,VWS V14.00,2013-01-10 16:05:00,
2013-01-10 11:10:00,50.9,36.5,30.45,East,96,0.0,4.8,58,0.00,,BKN110,0.00,VWS V14.00,2013-01-10 16:10:00,
2013-01-10 11:15:00,51.3,36.4,30.45,East,83,0.0,4.8,57,0.00,,BKN110,0.00,VWS V14.00,2013-01-10 16:15:00,
2013-01-10 11:20:00,51.8,35.6,30.45,ENE,65,4.7,6.3,54,0.00,,BKN110,0.00,VWS V14.00,2013-01-10 16:20:00,
2013-01-10 11:25:00,51.2,34.4,30.44,SE,142,0.0,8.8,52,0.00,,BKN110,0.00,VWS V14.00,2013-01-10 16:25:00,
2013-01-10 11:30:00,52.6,35.4,30.44,East,86,0.0,8.8,52,0.00,,BKN110,0.00,VWS V14.00,2013-01-10 16:30:00,
2013-01-10 11:35:00,52.2,33.8,30.44,ESE,104,8.3,8.3,49,0.00,,BKN110,0.00,VWS V14.00,2013-01-10 16:35:00,
2013-01-10 11:40:00,51.8,33.3,30.44,East,98,4.3,8.3,49,0.00,,BKN110,0.00,VWS V14.00,2013-01-10 16:40:00,
2013-01-10 11:45:00,51.7,32.8,30.44,SE,131,3.3,8.6,48,0.00,,BKN100,0.00,VWS V14.00,2013-01-10 16:45:00,
2013-01-10 11:50:00,52.0,32.7,30.44,ENE,72,0.0,7.2,48,0.00,,BKN100,0.00,VWS V14.00,2013-01-10 16:50:00,
2013-01-10 11:55:00,51.8,32.7,30.43,ESE,104,0.0,8.2,48,0.00,,BKN100,0.00,VWS V14.00,2013-01-10 16:55:00,
2013-01-10 12:00:00,53.1,33.3,30.43,East,101,0.0,8.2,47,0.00,,BKN100,0.00,VWS V14.00,2013-01-10 17:00:00,
2013-01-10 12:05:00,52.1,31.9,30.43,SE,134,6.0,6.1,46,0.00,,BKN100,0.00,VWS V14.00,2013-01-10 17:05:00,
2013-01-10 12:10:00,50.9,30.2,30.42,East,79,4.9,6.9,45,0.00,,BKN100,0.00,VWS V14.00,2013-01-10 17:10:00,
2013-01-10 12:15:00,51.0,30.6,30.42,SE,124,4.3,8.6,45,0.00,,BKN100,0.00,VWS V14.00,2013-01-10 17:15:00,
2013-01-10 12:20:00,50.9,29.5,30.42,NE,48,3.5,8.9,44,0.00,,BKN100,0.00,VWS V14.00,2013-01-10 17:20:00,
2013-01-10 12:25:00,50.7,28.6,30.41,SSE,149,3.3,9.9,42,0.00,,BKN100,0.00,VWS V14.00,2013-01-10 17:25:00,
2013-01-10 12:30:00,51.0,29.2,30.41,SSE,148,8.1,9.9,43,0.00,,BKN100,0.00,VWS V14.00,2013-01-10 17:30:00,
2013-01-10 12:35:00,50.8,29.0,30.41,SE,132,6.1,8.3,43,0.00,,BKN100,0.00,VWS V14.00,2013-01-10 17:35:00,
2013-01-10 12:40:00,53.2,31.6,30.41,East,80,6.9,8.3,44,0.00,,BKN100,0.00,VWS V14.00,2013-01-10 17:40:00,
2013-01-10 12:45:00,55.2,33.7,30.41,ESE,121,0.0,8.3,44,0.00,,BKN100,0.00,VWS V14.00,2013-01-10 17:45:00,
2013-01-10 12:50:00,54.7,33.5,30.41,SSE,153,3.4,6.1,44,0.00,,SCT110,0.00,VWS V14.00,2013-01-10 17:50:00,
2013-01-10 12:55:00,55.0,34.1,30.41,NE,51,0.0,6.1,45,0.00,,SCT110,0.00,VWS V14.00,2013-01-10 17:55:00,
2013-01-10 13:00:00,55.1,33.9,30.40,ENE,77,5.0,6.1,44,0.00,,SCT110,0.00,VWS V14.00,2013-01-10 18:00:00,
2013-01-10 13:05:00,55.6,34.5,30.40,ENE,76,0.0,4.2,45,0.00,,SCT110,0.00,VWS V14.00,2013-01-10 18:05:00,
2013-01-10 13:10:00,56.3,34.9,30.40,ESE,110,6.4,6.4,44,0.00,,SCT110,0.00,VWS V14.00,2013-01-10 18:10:00,
2013-01-10 13:15:00,56.4,35.2,30.40,ENE,60,0.0,6.4,45,0.00,,SCT110,0.00,VWS V14.00,2013-01-10 18:15:00,
2013-01-10 13:20:00,55.8,35.0,30.40,ESE,104,0.0,3.5,45,0.00,,SCT110,0.00,VWS V14.00,2013-01-10 18:20:00,
2013-01-10 13:25:00,57.0,36.1,30.40,East,101,0.0,6.2,45,0.00,,SCT110,0.00,VWS V14.00,2013-01-10 18:25:00,
2013-01-10 13:30:00,57.0,36.2,30.39,NE,53,0.0,6.5,46,0.00,,SCT110,0.00,VWS V14.00,2013-01-10 18:30:00,
2013-01-10 13:35:00,56.9,36.1,30.39,NNE,13,0.0,0.0,46,0.00,,SCT110,0.00,VWS V14.00,2013-01-10 18:35:00,
2013-01-10 13:40:00,56.7,35.7,30.39,SSE,156,0.0,6.6,45,0.00,,SCT110,0.00,VWS V14.00,2013-01-10 18:40:00,
2013-01-10 13:45:00,55.9,35.0,30.39,SSE,156,0.0,6.6,45,0.00,,CLR,0.00,VWS V14.00,2013-01-10 18:45:00,
2013-01-10 13:50:00,55.4,34.6,30.39,ENE,75,0.0,7.1,45,0.00,,CLR,0.00,VWS V14.00,2013-01-10 18:50:00,
2013-01-10 13:55:00,56.4,35.6,30.39,ENE,75,0.0,7.1,45,0.00,,CLR,0.00,VWS V14.00,2013-01-10 18:55:00,
2013-01-10 14:00:00,56.9,36.1,30.39,NE,48,0.0,7.1,46,0.00,,CLR,0.00,VWS V14.00,2013-01-10 19:00:00,
2013-01-10 14:05:00,57.3,36.3,30.39,NE,48,0.0,0.0,45,0.00,,CLR,0.00,VWS V14.00,2013-01-10 19:05:00,
2013-01-10 14:10:00,56.3,35.0,30.39,NE,42,0.0,3.4,44,0.00,,CLR,0.00,VWS V14.00,2013-01-10 19:10:00,
2013-01-10 14:15:00,56.7,36.0,30.39,NE,42,0.0,3.4,46,0.00,,CLR,0.00,VWS V14.00,2013-01-10 19:15:00,
2013-01-10 14:20:00,57.9,37.0,30.39,NNW,339,0.0,3.5,46,0.00,,CLR,0.00,VWS V14.00,2013-01-10 19:20:00,
2013-01-10 14:25:00,57.4,36.5,30.39,NNE,24,0.0,5.3,45,0.00,,CLR,0.00,VWS V14.00,2013-01-10 19:25:00,
2013-01-10 14:30:00,58.1,37.5,30.39,NNE,24,0.0,5.3,46,0.00,,CLR,0.00,VWS V14.00,2013-01-10 19:30:00,
2013-01-10 14:35:00,57.9,37.5,30.39,NNE,14,0.0,6.3,46,0.00,,CLR,0.00,VWS V14.00,2013-01-10 19:35:00,
2013-01-10 14:40:00,58.0,37.6,30.39,ESE,122,0.0,6.3,46,0.00,,CLR,0.00,VWS V14.00,2013-01-10 19:40:00,
2013-01-10 14:45:00,58.1,37.6,30.39,East,97,0.0,6.3,46,0.00,,CLR,0.00,VWS V14.00,2013-01-10 19:45:00,
2013-01-10 14:50:00,57.2,36.6,30.39,ENE,76,0.0,7.2,46,0.00,,CLR,0.00,VWS V14.00,2013-01-10 19:50:00,
2013-01-10 14:55:00,56.3,35.9,30.39,ENE,76,0.0,7.2,46,0.00,,CLR,0.00,VWS V14.00,2013-01-10 19:55:00,
2013-01-10 15:00:00,58.0,37.7,30.39,ENE,76,0.0,7.2,47,0.00,,CLR,0.00,VWS V14.00,2013-01-10 20:00:00,
2013-01-10 15:05:00,58.1,37.5,30.38,ENE,76,0.0,0.0,46,0.00,,CLR,0.00,VWS V14.00,2013-01-10 20:05:00,
2013-01-10 15:10:00,58.4,38.3,30.38,ENE,76,0.0,0.0,47,0.00,,CLR,0.00,VWS V14.00,2013-01-10 20:10:00,
2013-01-10 15:15:00,58.0,37.6,30.38,ENE,76,0.0,0.0,46,0.00,,CLR,0.00,VWS V14.00,2013-01-10 20:15:00,
2013-01-10 15:20:00,58.8,38.0,30.38,ENE,76,0.0,0.0,46,0.00,,CLR,0.00,VWS V14.00,2013-01-10 20:20:00,
2013-01-10 15:25:00,57.5,37.1,30.39,ENE,76,0.0,0.0,46,0.00,,CLR,0.00,VWS V14.00,2013-01-10 20:25:00,
2013-01-10 15:30:00,55.9,35.6,30.39,ENE,76,0.0,0.0,46,0.00,,CLR,0.00,VWS V14.00,2013-01-10 20:30:00,
2013-01-10 15:35:00,56.4,36.3,30.39,ENE,76,0.0,0.0,47,0.00,,CLR,0.00,VWS V14.00,2013-01-10 20:35:00,
2013-01-10 15:40:00,57.0,36.8,30.38,ENE,76,0.0,0.0,47,0.00,,CLR,0.00,VWS V14.00,2013-01-10 20:40:00,
2013-01-10 15:45:00,56.2,36.2,30.38,ENE,76,0.0,0.0,47,0.00,,CLR,0.00,VWS V14.00,2013-01-10 20:45:00,
2013-01-10 15:50:00,55.6,35.9,30.38,ENE,75,0.0,2.8,47,0.00,,CLR,0.00,VWS V14.00,2013-01-10 20:50:00,
2013-01-10 15:55:00,55.7,36.1,30.38,East,83,0.0,5.3,48,0.00,,CLR,0.00,VWS V14.00,2013-01-10 20:55:00,
2013-01-10 16:00:00,54.8,35.6,30.38,ENE,72,2.8,5.3,48,0.00,,CLR,0.00,VWS V14.00,2013-01-10 21:00:00,
2013-01-10 16:05:00,54.3,35.2,30.38,East,98,0.0,4.6,48,0.00,,CLR,0.00,VWS V14.00,2013-01-10 21:05:00,
2013-01-10 16:10:00,55.5,36.4,30.38,East,84,5.0,5.0,48,0.00,,CLR,0.00,VWS V14.00,2013-01-10 21:10:00,
2013-01-10 16:15:00,54.9,36.1,30.38,ESE,104,0.0,5.0,49,0.00,,CLR,0.00,VWS V14.00,2013-01-10 21:15:00,
2013-01-10 16:20:00,55.9,37.1,30.38,East,90,0.0,4.5,49,0.00,,CLR,0.00,VWS V14.00,2013-01-10 21:20:00,
2013-01-10 16:25:00,54.3,35.9,30.38,East,90,0.0,4.5,50,0.00,,CLR,0.00,VWS V14.00,2013-01-10 21:25:00,
2013-01-10 16:30:00,53.9,35.5,30.38,East,90,0.0,4.5,50,0.00,,CLR,0.00,VWS V14.00,2013-01-10 21:30:00,
2013-01-10 16:35:00,53.0,34.7,30.38,East,90,0.0,0.0,50,0.00,,CLR,0.00,VWS V14.00,2013-01-10 21:35:00,
2013-01-10 16:40:00,52.3,34.2,30.38,East,90,0.0,0.0,50,0.00,,CLR,0.00,VWS V14.00,2013-01-10 21:40:00,
2013-01-10 16:45:00,51.0,33.3,30.39,East,90,0.0,0.0,50,0.00,,CLR,0.00,VWS V14.00,2013-01-10 21:45:00,
2013-01-10 16:50:00,50.6,32.9,30.39,East,90,0.0,0.0,50,0.00,,CLR,0.00,VWS V14.00,2013-01-10 21:50:00,
2013-01-10 16:55:00,51.1,33.5,30.39,East,90,0.0,0.0,51,0.00,,CLR,0.00,VWS V14.00,2013-01-10 21:55:00,
2013-01-10 17:00:00,55.1,37.2,30.39,East,90,0.0,0.0,51,0.00,,CLR,0.00,VWS V14.00,2013-01-10 22:00:00,
2013-01-10 17:05:00,53.5,36.0,30.39,East,90,0.0,0.0,51,0.00,,CLR,0.00,VWS V14.00,2013-01-10 22:05:00,
2013-01-10 17:10:00,55.1,38.0,30.39,East,90,0.0,0.0,52,0.00,,CLR,0.00,VWS V14.00,2013-01-10 22:10:00,
2013-01-10 18:29:00,51.1,39.2,30.40,East,90,0.0,0.0,64,0.00,,CLR,0.00,VWS V14.00,2013-01-10 23:29:00,
2013-01-10 18:34:00,51.1,39.4,30.40,East,90,0.0,0.0,64,0.00,,CLR,0.00,VWS V14.00,2013-01-10 23:34:00,
2013-01-10 18:39:00,50.9,39.2,30.40,East,90,0.0,0.0,64,0.00,,CLR,0.00,VWS V14.00,2013-01-10 23:39:00,
2013-01-10 18:44:00,50.9,39.2,30.40,East,90,0.0,0.0,64,0.00,,CLR,0.00,VWS V14.00,2013-01-10 23:44:00,
2013-01-10 18:49:00,50.6,39.3,30.40,East,90,0.0,0.0,65,0.00,,CLR,0.00,VWS V14.00,2013-01-10 23:49:00,
2013-01-10 18:54:00,50.7,39.5,30.40,East,90,0.0,0.0,65,0.00,,CLR,0.00,VWS V14.00,2013-01-10 23:54:00,
2013-01-10 18:59:00,50.6,39.4,30.40,East,90,0.0,0.0,65,0.00,,CLR,0.00,VWS V14.00,2013-01-10 23:59:00,
2013-01-10 19:04:00,50.4,39.1,30.39,East,90,0.0,0.0,65,0.00,,CLR,0.00,VWS V14.00,2013-01-11 00:04:00,
2013-01-10 19:09:00,50.9,39.7,30.39,East,90,0.0,0.0,65,0.00,,CLR,0.00,VWS V14.00,2013-01-11 00:09:00,
2013-01-10 19:14:00,50.8,39.7,30.39,East,90,0.0,0.0,66,0.00,,CLR,0.00,VWS V14.00,2013-01-11 00:14:00,
2013-01-10 19:19:00,50.9,39.7,30.39,East,90,0.0,0.0,65,0.00,,CLR,0.00,VWS V14.00,2013-01-11 00:19:00,
2013-01-10 19:24:00,50.9,40.2,30.39,East,90,0.0,0.0,66,0.00,,CLR,0.00,VWS V14.00,2013-01-11 00:24:00,
2013-01-10 19:29:00,50.8,39.9,30.39,East,90,0.0,0.0,66,0.00,,CLR,0.00,VWS V14.00,2013-01-11 00:29:00,
2013-01-10 19:34:00,50.9,40.0,30.39,East,90,0.0,0.0,66,0.00,,CLR,0.00,VWS V14.00,2013-01-11 00:34:00,
2013-01-10 19:39:00,50.8,40.1,30.38,East,90,0.0,0.0,67,0.00,,CLR,0.00,VWS V14.00,2013-01-11 00:39:00,
2013-01-10 19:44:00,50.6,40.3,30.39,East,90,0.0,0.0,68,0.00,,CLR,0.00,VWS V14.00,2013-01-11 00:44:00,
2013-01-10 19:49:00,50.8,41.0,30.39,East,90,0.0,0.0,69,0.00,,CLR,0.00,VWS V14.00,2013-01-11 00:49:00,
2013-01-10 19:54:00,50.6,41.6,30.38,ENE,62,0.0,2.2,71,0.00,,CLR,0.00,VWS V14.00,2013-01-11 00:54:00,
2013-01-10 19:59:00,50.5,41.6,30.38,ENE,62,0.0,2.2,71,0.00,,CLR,0.00,VWS V14.00,2013-01-11 00:59:00,
2013-01-10 20:04:00,50.6,41.3,30.38,ENE,62,0.0,0.0,70,0.00,,CLR,0.00,VWS V14.00,2013-01-11 01:04:00,
2013-01-10 20:09:00,50.1,41.6,30.38,ENE,62,0.0,0.0,72,0.00,,CLR,0.00,VWS V14.00,2013-01-11 01:09:00,
2013-01-10 20:14:00,49.9,42.0,30.38,ENE,62,0.0,0.0,74,0.00,,CLR,0.00,VWS V14.00,2013-01-11 01:14:00,
2013-01-10 20:19:00,49.3,41.7,30.38,ENE,62,0.0,0.0,75,0.00,,CLR,0.00,VWS V14.00,2013-01-11 01:19:00,
2013-01-10 20:24:00,49.0,41.5,30.38,ENE,62,0.0,0.0,75,0.00,,CLR,0.00,VWS V14.00,2013-01-11 01:24:00,
2013-01-10 20:29:00,47.9,40.5,30.39,ENE,62,0.0,0.0,75,0.00,,CLR,0.00,VWS V14.00,2013-01-11 01:29:00,
2013-01-10 20:34:00,46.4,39.2,30.39,ENE,62,0.0,0.0,76,0.00,,CLR,0.00,VWS V14.00,2013-01-11 01:34:00,
2013-01-10 20:39:00,45.6,39.3,30.38,ENE,62,0.0,0.0,78,0.00,,CLR,0.00,VWS V14.00,2013-01-11 01:39:00,
2013-01-10 20:44:00,43.9,38.3,30.38,ENE,62,0.0,0.0,81,0.00,,CLR,0.00,VWS V14.00,2013-01-11 01:44:00,
2013-01-10 20:50:00,47.4,42.4,30.38,ENE,77,3.1,3.4,83,0.00,,CLR,0.00,VWS V14.00,2013-01-11 01:50:00,
2013-01-10 20:55:00,48.1,43.2,30.38,ESE,107,0.0,4.6,83,0.00,,CLR,0.00,VWS V14.00,2013-01-11 01:55:00,
2013-01-10 21:00:00,48.2,43.2,30.38,ESE,107,0.0,4.6,83,0.00,,CLR,0.00,VWS V14.00,2013-01-11 02:00:00,
2013-01-10 21:05:00,48.7,43.5,30.38,ESE,107,0.0,0.0,82,0.00,,CLR,0.00,VWS V14.00,2013-01-11 02:05:00,
2013-01-10 21:10:00,48.7,43.4,30.38,ESE,107,0.0,0.0,82,0.00,,CLR,0.00,VWS V14.00,2013-01-11 02:10:00,
2013-01-10 21:15:00,48.7,43.8,30.38,ESE,107,0.0,0.0,83,0.00,,CLR,0.00,VWS V14.00,2013-01-11 02:15:00,
2013-01-10 21:20:00,48.7,43.8,30.39,ESE,107,0.0,0.0,83,0.00,,CLR,0.00,VWS V14.00,2013-01-11 02:20:00,
2013-01-10 21:25:00,48.8,44.0,30.38,SE,141,0.0,5.5,83,0.00,,CLR,0.00,VWS V14.00,2013-01-11 02:25:00,
2013-01-10 21:30:00,48.8,44.2,30.38,East,97,0.0,5.5,84,0.00,,CLR,0.00,VWS V14.00,2013-01-11 02:30:00,
2013-01-10 21:35:00,49.1,44.6,30.38,East,97,0.0,3.5,84,0.00,,CLR,0.00,VWS V14.00,2013-01-11 02:35:00,
2013-01-10 21:40:00,49.1,44.4,30.38,SE,142,5.0,5.0,84,0.00,,CLR,0.00,VWS V14.00,2013-01-11 02:40:00,
2013-01-10 21:45:00,48.9,44.0,30.37,SSE,153,0.0,5.0,83,0.00,,CLR,0.00,VWS V14.00,2013-01-11 02:45:00,
2013-01-10 21:50:00,48.8,44.1,30.38,SSE,153,0.0,0.0,84,0.00,,CLR,0.00,VWS V14.00,2013-01-11 02:50:00,
2013-01-10 21:55:00,48.7,44.1,30.38,SSE,153,0.0,0.0,84,0.00,,CLR,0.00,VWS V14.00,2013-01-11 02:55:00,
2013-01-10 22:00:00,48.6,44.2,30.37,SSE,153,0.0,0.0,85,0.00,,CLR,0.00,VWS V14.00,2013-01-11 03:00:00,
2013-01-10 22:05:00,48.2,43.6,30.37,SSE,153,0.0,0.0,84,0.00,,CLR,0.00,VWS V14.00,2013-01-11 03:05:00,
2013-01-10 22:10:00,47.8,43.5,30.37,SSE,153,0.0,0.0,85,0.00,,CLR,0.00,VWS V14.00,2013-01-11 03:10:00,
2013-01-10 22:15:00,47.5,43.6,30.37,SSE,153,0.0,0.0,86,0.00,,CLR,0.00,VWS V14.00,2013-01-11 03:15:00,
2013-01-10 22:20:00,47.0,43.3,30.37,SSE,153,0.0,0.0,87,0.00,,CLR,0.00,VWS V14.00,2013-01-11 03:20:00,
2013-01-10 22:25:00,46.6,43.1,30.37,SSE,153,0.0,0.0,87,0.00,,CLR,0.00,VWS V14.00,2013-01-11 03:25:00,
2013-01-10 22:30:00,44.5,40.6,30.37,SSE,153,0.0,0.0,86,0.00,,CLR,0.00,VWS V14.00,2013-01-11 03:30:00,
2013-01-10 22:35:00,45.2,41.8,30.37,SSE,153,0.0,0.0,88,0.00,,CLR,0.00,VWS V14.00,2013-01-11 03:35:00,
2013-01-10 22:40:00,45.9,42.8,30.37,SSE,153,0.0,0.0,89,0.00,,CLR,0.00,VWS V14.00,2013-01-11 03:40:00,
2013-01-10 22:45:00,45.8,43.1,30.36,SSE,153,0.0,0.0,90,0.00,,CLR,0.00,VWS V14.00,2013-01-11 03:45:00,
2013-01-10 22:50:00,45.6,42.8,30.37,SSE,153,0.0,0.0,90,0.00,,CLR,0.00,VWS V14.00,2013-01-11 03:50:00,
2013-01-10 22:55:00,45.7,43.0,30.37,SSE,153,0.0,0.0,90,0.00,,CLR,0.00,VWS V14.00,2013-01-11 03:55:00,
2013-01-10 23:00:00,45.3,42.5,30.36,SSE,153,0.0,0.0,90,0.00,,CLR,0.00,VWS V14.00,2013-01-11 04:00:00,
2013-01-10 23:05:00,45.2,42.4,30.36,SSE,153,0.0,0.0,90,0.00,,CLR,0.00,VWS V14.00,2013-01-11 04:05:00,
2013-01-10 23:10:00,44.6,41.9,30.36,SSE,153,0.0,0.0,90,0.00,,CLR,0.00,VWS V14.00,2013-01-11 04:10:00,
2013-01-10 23:15:00,44.8,42.3,30.36,SSE,153,0.0,0.0,91,0.00,,CLR,0.00,VWS V14.00,2013-01-11 04:15:00,
2013-01-10 23:20:00,44.3,41.8,30.36,SSE,153,0.0,0.0,91,0.00,,CLR,0.00,VWS V14.00,2013-01-11 04:20:00,
2013-01-10 23:25:00,44.1,41.7,30.36,SSE,153,0.0,4.2,91,0.00,,CLR,0.00,VWS V14.00,2013-01-11 04:25:00,
2013-01-10 23:30:00,43.3,40.7,30.35,SSE,153,0.0,4.2,90,0.00,,CLR,0.00,VWS V14.00,2013-01-11 04:30:00,
2013-01-10 23:35:00,45.2,42.4,30.35,East,97,0.0,6.4,90,0.00,,CLR,0.00,VWS V14.00,2013-01-11 04:35:00,
2013-01-10 23:40:00,46.1,42.9,30.35,ESE,107,3.5,6.4,89,0.00,,CLR,0.00,VWS V14.00,2013-01-11 04:40:00,
2013-01-10 23:45:00,46.4,43.0,30.35,SE,143,0.0,6.4,88,0.00,,CLR,0.00,VWS V14.00,2013-01-11 04:45:00,